Overview Statistics Trail Chart Weather Telemetry Raw packets
 

This is the latest recevied weather packets stored in our database for station/object KF6RAL-6. If no packets are shown the sender has not sent any weather packets the latest 10 day(s).

<< 31 32 33 34 35 36 37 >>
Time Temp. Humidity Pressure Rain* Wind** Luminosity Snow
1788373004 27.22° C 28% 1012.1 hPa 0 mm - - -
1788372583 27.22° C 27% 1012.2 hPa 0 mm - - -
1788372162 27.22° C 26% 1012.4 hPa 0 mm - - -
1788371741 26.67° C 28% 1012.2 hPa 0 mm - - -
1788371320 26.11° C 29% 1012.4 hPa 0 mm - - -
1788370899 26.11° C 29% 1012.1 hPa 0 mm - - -
1788370478 26.11° C 28% 1012.2 hPa 0 mm - - -
1788370057 26.11° C 28% 1012.7 hPa 0 mm - - -
1788369636 26.11° C 29% 1012.2 hPa 0 mm - - -
1788369216 26.11° C 29% 1012.4 hPa 0 mm - - -
1788368795 26.11° C 30% 1012.1 hPa 0 mm - - -
1788368373 25.56° C 29% 1012.6 hPa 0 mm - - -
1788367952 26.11° C 29% 1012.1 hPa 0 mm - - -
1788367532 25.56° C 30% 1012.2 hPa 0 mm - - -
1788367110 25.56° C 30% 1012.8 hPa 0 mm - - -
1788366689 25.56° C 31% 1012.5 hPa 0 mm - - -
1788366268 25.56° C 31% 1012.5 hPa 0 mm - - -
1788365847 25.56° C 32% 1012.4 hPa 0 mm - - -
1788365426 25.56° C 31% 1012.4 hPa 0 mm - - -
1788365006 25.56° C 31% 1011.8 hPa 0 mm - - -
1788364164 25.56° C 30% 1012.3 hPa 0 mm - - -
1788363742 25.56° C 30% 1012.5 hPa 0 mm - - -
1788363321 25.56° C 30% 1012.4 hPa 0 mm - - -
1788362479 25° C 30% 1012.2 hPa 0 mm - - -
1788362058 25° C 30% 1012.5 hPa 0 mm - - -

* Rain latest hour (hover to see other rain measurements)
** Current wind speed in m/s (hover to see current wind gust speed)